Home   Weather   Costa Mesa   Past weeks

Flag for USA Past Weather in Costa Mesa, California, USA — Yesterday and Last 2 Weeks

Now
56 °F

Passing clouds.


Feels Like: 56 °F
Forecast: 54 / 66 °F
Wind: No wind

Location: John Wayne Airport-Orange County Airport

Current Time: Dec 8, 2016 at 11:39:32 pm

Latest Report: Dec 8, 2016 at 10:53 pm


Visibility: 10 mi

Pressure: 30.26 "Hg

Humidity: 87%

Dew Point: 52 °F

Location of Costa MesaLocation

Past Weather in Costa Mesa — Graph

°F

Costa Mesa Temperature Yesterday

Maximum temperature yesterday: 63 °F (at 1:53 pm)
Minimum temperature yesterday: 52 °F (at 5:53 am)
Average temperature yesterday: 57 °F

High & Low Weather Summary for the Past Weeks

 TemperatureHumidityPressure
High79 °F (Nov 24, 12:53 pm)97% (Dec 5, 5:53 am)30.26 "Hg (Dec 5, 5:53 am)
Low44 °F (Nov 26, 4:53 am)11% (Dec 3, 1:53 pm)29.83 "Hg (Nov 28, 4:53 pm)
Average57 °F60%30.02 "Hg
* Reported Nov 23 9:53 pm — Dec 8 9:53 pm, Costa Mesa, Weather by CustomWeather, © 2016

Note: Actual official high and low records may vary slightly from our data, if they occured in-between our weather recording intervals... More about our weather records

Advertising

Costa Mesa Weather History for the Previous 24 Hours

Scroll right to see more
 ConditionsComfort  
Time TempWeatherWind HumidityBarometerVisibility
9:53 pm
Thu, Dec 8
58 °FPassing clouds.No wind84%30.26 "Hg10 mi
8:53 pm58 °FPassing clouds.3 mph84%30.25 "Hg10 mi
7:53 pm58 °FPassing clouds.No wind84%30.25 "Hg10 mi
6:53 pm59 °FPassing clouds.No wind78%30.23 "Hg10 mi
5:53 pm59 °FClear.3 mph69%30.22 "Hg10 mi
4:53 pm61 °FPassing clouds.5 mph65%30.22 "Hg10 mi
3:53 pm62 °FSunny.6 mph60%30.21 "Hg10 mi
2:53 pm64 °FPassing clouds.6 mph47%30.20 "Hg10 mi
1:53 pm64 °FPassing clouds.5 mph50%30.21 "Hg10 mi
12:53 pm64 °FPassing clouds.7 mph54%30.22 "Hg10 mi
11:53 am64 °FScattered clouds.6 mph61%30.23 "Hg10 mi
10:53 am63 °FPassing clouds.6 mph63%30.25 "Hg10 mi
9:53 am61 °FPassing clouds.3 mph60%30.26 "Hg8 mi
8:53 am58 °FScattered clouds.No wind67%30.24 "Hg9 mi
7:53 am53 °FScattered clouds.No wind80%30.22 "Hg9 mi
6:53 am50 °FPartly sunny.No wind83%30.21 "Hg10 mi
5:53 am50 °FPassing clouds.No wind86%30.19 "Hg10 mi
4:53 am50 °FPassing clouds.3 mph86%30.17 "Hg10 mi
3:53 am50 °FClear.No wind89%30.16 "Hg10 mi
2:53 am51 °FClear.3 mph86%30.16 "Hg10 mi
1:53 am52 °FClear.No wind89%30.16 "Hg10 mi
12:53 am52 °FClear.3 mph93%30.16 "Hg10 mi
11:53 pm
Wed, Dec 7
54 °FClear.3 mph90%30.16 "Hg10 mi
Weather by CustomWeather, © 2016

See weather overviewHow to use our weather pages